Cloud_Cover
100 97 100 100 100 94 96 100 100 100 100 100 86 18 41 44 17 7 60 100 100 100
100 100 100 100 100 100 100 100 100 100 100 100 100 100 100 100 100 100 45 98 100 100
93 81 99 100 99 90 99 97 100 100 100 100 100 100 100 100 100 100 99 89 100 100
100 100 100 100 95 57 100 100 100 98 100 100 92 100 100 100 100 100 100 100 74 100
5 39 46 30 35 66 97 94 94 100 98 91 100 100 87 100 97 79 96 100 100 100
0 0 2 2 0 3 7 48 68 93 100 100 96 100 100 100 100 100 90 68 100 94
3 4 5 5 5 5 4 3 4 5 5 5 5 14 71 66 24 36 100 33 100 100
2 1 5 1 0 0 0 0 0 1 0 0 0 1 3 5 4 2 64 97 80 100
0 0 0 0 0 0 0 0 0 0 0 0 0 0 0 3 4 0 0 0 3 5
5 4 0 0 0 0 0 0 0 0 0 0 0 0 0 5 5 0 0 0 0 0
5 5 0 1 4 4 5 5 5 1 2 0 0 0 0 5 2 0 0 0 0 0
5 8 6 5 5 76 5 11 0 4 0 0 0 0 0 5 5 5 5 4 4 5
5 6 32 100 100 100 12 6 2 4 0 1 0 0 5 44 76 90 48 68 75 5
7 45 92 100 30 15 19 44 5 5 2 0 0 0 7 68 90 73 94 48 5 5